Location: Newark
(3.0500°N, 36.0167°E)
Time: 02:11:50
(UTC+00:00)

Transit 4A - Pass Details

Date: 26 August 2019
Orbit: 865 x 980 km, 66.8° (Epoch: 16 September)

Event Time Altitude Azimuth Distance (km) Brightness Sun altitude
Exits shadow 02:00:08 21° 192° (SSW) 1,865 9.2 -23.4°
Drops below altitude 10° 02:02:05 10° 181° (S) 2,511 10.0 -22.9°
Sets 02:04:40 0° 174° (S) 3,444 10.8 -22.3°
